Regional Weather Roundup
Issued by NWS Upton, NY

Current Version | Previous Version | Text Only | Print | Product List | Glossary On
Versions: 1 2 3 4 5 6 7 8 9 10 11 12 13 14 15 16 17 18 19 20 21 22 23 24 25 26 27
000 ASUS41 KOKX 170908 RWROKX REGIONAL WEATHER ROUNDUP NATIONAL WEATHER SERVICE NEW YORK NY 400 AM EST TUE JAN 17 2017 NOTE: "FAIR" INDICATES FEW OR NO CLOUDS BELOW 12,000 FEET WITH NO SIGNIFICANT WEATHER AND/OR OBSTRUCTIONS TO VISIBILITY. NYZ071-072-176-178-NJZ106-104-171000- NEW YORK CITY METRO AREA CITY SKY/WX TMP DP RH WIND PRES REMARKS Central Park CLOUDY 40 27 59 W6 30.25F Wall St Helipt CLOUDY 40 28 62 W8 30.25F WCI 34 Bronx Bot Gard NOT AVBL LaGuardia APRT CLOUDY 41 27 57 SW6 30.23F Kennedy INTL CLOUDY 40 28 62 SW9 30.25F WCI 34 Breezy Point N/A 37 N/A N/A SW7 N/A WCI 32 Newark/Liberty CLOUDY 40 26 57 SW7 30.25F Teterboro CLOUDY 39 28 64 SW7 30.23F WCI 34 $$ NYZ177-179-078>081-171000- LONG ISLAND NEW YORK CITY SKY/WX TMP DP RH WIND PRES REMARKS Jones Beach N/A 39 N/A N/A W8 N/A WCI 34 Matinecock PT NOT AVBL Farmingdale CLOUDY 39 28 64 W10 30.23F WCI 32 MacArthur/ISP CLOUDY 38 28 67 W7 30.22F WCI 33 Shirley CLOUDY 37 29 72 CALM 30.23F Westhampton PTCLDY 32 25 75 CALM 30.24F Southampton NOT AVBL Bridgehampton NOT AVBL East Hampton N/A 38 26 63 CALM 30.21F Montauk N/A 40 29 64 W5 30.23S $$ NYZ052-065-067-171000- HUDSON VALLEY CITY SKY/WX TMP DP RH WIND PRES REMARKS White Plains CLOUDY 36 25 64 W3 30.20F Newburgh NOT AVBL Montgomery CLOUDY 35 27 72 SW5 30.20F WCI 31 Poughkeepsie CLOUDY 33 26 75 CALM 30.21F Albany CLOUDY 21 17 84 CALM 30.23F $$ NJZ001-105-106-008-010-013-015-019>022-104-171000- NEW JERSEY CITY SKY/WX TMP DP RH WIND PRES REMARKS Newark/Liberty CLOUDY 40 26 57 SW7 30.25F Teterboro CLOUDY 39 28 64 SW7 30.23F WCI 34 Caldwell CLOUDY 38 26 62 VRB5 30.24F WCI 34 Somerville CLOUDY 37 28 70 CALM 30.23F Linden CLOUDY 39 25 57 W3 30.26S Sussex CLOUDY 35 27 72 SW3 30.22F Andover N/A 34 26 72 CALM 30.23F Trenton CLOUDY 38 26 62 CALM 30.25F Millville LGT RAIN 36 33 89 CALM 30.27S Atlantic City CLOUDY 38 27 64 CALM 30.27S Wrightstown CLOUDY 38 27 64 SW6 30.23F WCI 33 Toms River CLOUDY 38 26 62 CALM 30.27S Belmar CLOUDY 38 25 59 CALM 30.26F $$ PAZ047>061-062-071-171000- EASTERN PENNSYLVANIA CITY SKY/WX TMP DP RH WIND PRES REMARKS Philadelphia CLOUDY 39 30 70 CALM 30.26F Allentown CLOUDY 37 26 64 CALM 30.23F Scranton CLOUDY 34 29 82 CALM 30.19F $$ CTZ002-004>006-009-010-012-RIZ004-006-007-MAZ004-011-015-171000- SOUTHERN NEW ENGLAND IN CT CITY SKY/WX TMP DP RH WIND PRES REMARKS Bradley INTL MOCLDY 29 23 78 CALM 30.21F Hartford CLOUDY 31 26 82 CALM 30.22F Danbury CLOUDY 34 25 69 CALM 30.22F Wtrbury/Oxford CLOUDY 34 23 64 CALM 30.20F Bridgeport PTCLDY 39 27 62 W5 30.23F Meriden MOCLDY 32 27 81 CALM 30.21F New Haven CLOUDY 37 28 70 CALM 30.22F Chester N/A 36 27 69 CALM 30.20F Groton MOCLDY 38 28 67 W6 30.21F WCI 33 Wilimantic CLOUDY 30 26 85 NE3 30.21F IN RI CITY SKY/WX TMP DP RH WIND PRES REMARKS Providence PTCLDY 31 25 78 S3 30.21F Block Island NOT AVBL Westerly MOCLDY 38 27 64 W3 30.22F IN MA CITY SKY/WX TMP DP RH WIND PRES REMARKS Boston CLEAR 34 19 54 NW6 30.20S WCI 29 Worcester CLEAR 32 15 49 W15 30.15F WCI 22 Westfield CLOUDY 28 22 78 CALM 30.21F Provincetown CLEAR 36 26 67 W9 30.20S WCI 29 Nantucket CLOUDY 39 31 72 W9 30.21F WCI 33 $$ ANZ330-335-338-340-345-350-353-355-171000- COASTAL MARINE OBSERVATIONS STATION/POSITION TIME SKY/WX TEMP WIND PRES VSBY WAVE AIR SEA DIR/SP/G HT/PER (UTC) (F) (DEG/KT/KT) (MB) (MI) (FT/S) NY HARB ENTRANCE 0750 41 43 250/ 12/ 14 1024.9 2/10 20 S FIRE ISLAND 0750 42 45 240/ 14/ 16 1024.5 2/ 4 GREAT SOUTH BAY NOT AVBL 23 SSW MONTAUK P 0750 44 48 250/ 19/ 23 1024.1 4/ 5 15 E BARNEGAT LI 0830 45 N/A 1/11 HUDSON CANYON 0750 47 53 1025.4 2/ 8 KINGS POINT 0842 40 38 1023.6 EXECUTION ROCKS 0845 40 240/ 10/ 12 N/A CENTRAL LI SOUND 0815 40 250/ 10/ 12 N/A 1/ 3 EASTERN LI SOUND NOT AVBL ROBBINS REEF 0848 39 250/ 7/ 9 1024.4 $$ >>>>>>>>>>>>>>>>>>>>>>>>>>>> KEY <<<<<<<<<<<<<<<<<<<<<<<<<<< > < > SKY/WX - Sky Condition/Present Weather < > TMP - Temperature in Fahrenheit < > DP - Dew Point in Fahrenheit < > RH - Relative Humidity in Percent < > WIND - Direction (from) and Speed in MPH < > PRES - Mean Sea Level Pressure (inches of Hg) < > WCI - Wind Chill Index < > VSB - VISIBILITY IN MILES < > HX - HEAT INDEX < > TC - TEMPERATURE IN CELSIUS < > VRB - VARIABLE WIND DIRECTION < > < >>>>>>>>>>>>>>>>>>>>>>>>>>>> KEY <<<<<<<<<<<<<<<<<<<<<<<<<<<

USA.gov is the U.S. government's official web portal to all federal, state and local government web resources and services.